Hauptseite
METAR-TAF:

METAR-TAF

Flughäfen :

Dübendorf, Schweiz

Militärflugplatz Dübendorf

Breite: 47-23-55N, Länge: 8-38-53E, Höhe: 448 m

Beobachtung

Neuester Wetterbericht von vor 49 Minuten, um 23:50 UTC
Windstille
Temperatur 0°C
Luftfeuchtigkeit 100%
Luftdruck 1012 hPa
Sichtweite: 1900 m
Aufgelockert bewölkt in der Höhe von 200 ft
Durchbrochene Bewölkung in der Höhe von 400 ft
Durchbrochene Bewölkung in der Höhe von 600 ft
Schnee

METAR: LSMD 272350Z AUTO 00000KT 1900NDV SN SCT002 BKN004 BKN006 00/M00 Q1012 RMK

Zeit: 02:39 (00:39 UTC)


TAF: fehlend

Wetterbeobachtungen und Prognosen von mehr als 4000 Flughäfen (METAR und TAF Bericht).

Die verfügbaren Stationen werden durch gelbe und rote Markierungen auf der Karte dargestellt.

Führen Sie die Maus auf sie, um den Namen der Station zu sehen.

Darauf klicken, um die Beobachtung von Wetterbeobachtungen und Prognosen zu sehen.

Um die Karte zu ändern : klicken Sie auf den grünen Tasten mit einem schwarzen Kreuz Zum Vergrößern, auf den grünen Button mit einem Gedankenstrich zu verkleinern, oder auf die grünen Pfeile für benachbarte Karten.


METAR-TAF: